Location: ????????
(56.0167°N, 38.0333°E)
Time: 02:31:52
(UTC+00:00)

CZ-2C R/B - Pass Details

Date: 19 May 2025
Orbit: 782 x 867 km, 98.4° (Epoch: 13 June)

Event Time Altitude Azimuth Distance (km) Brightness Sun altitude
Exits shadow 20:55:02 - 121° (ESE) 2,827 5.1 -13.8°
Reaches altitude 10° 20:56:24 10° 114° (ESE) 2,349 4.7 -13.8°
Maximum altitude 21:00:46 29° 56° (ENE) 1,428 4.2 -13.9°
Drops below altitude 10° 21:05:08 10° 359° (N) 2,355 6.5 -13.9°
Sets 21:07:43 0° 348° (NNW) 3,290 7.7 -13.9°
